Weather History for KRBL - November, 2013

Change the Weather History Date:

Tuesday, November 19, 2013

  Actual Average Record
Temperature  
Mean Temperature 52 °F -  
Max Temperature 55 °F 61 °F 90 °F (1936)
Min Temperature 50 °F 40 °F 28 °F (2011)
Degree Days  
Heating Degree Days 12    
Growing Degree Days 2 (Base 50)    
Moisture  
Dew Point 51 °F    
Average Humidity 95    
Maximum Humidity 100    
Minimum Humidity 88    
Precipitation  
Precipitation 0.28 in - - ()
Sea Level Pressure  
Sea Level Pressure 30.00 in    
Wind  
Wind Speed 8 mph (South)    
Max Wind Speed 14 mph    
Max Gust Speed -    
Visibility 4 miles    
Events Rain    
Averages and records for this station are not official NWS values.
T = Trace of Precipitation, MM = Missing Value Source: NWS Daily Summary

Daily Weather History Graph

Daily Weather History Graph

Search for Another Location

Airport or City:

Trip Planner

Search our weather history database for the weather conditions in past years. The results will help you decide how hot, cold, wet, or windy it might be!

Date:

Astronomy

Nov. 19, 2013 Rise Set
Actual Time 6:59 AM PST 4:49 PM PST
Civil Twilight 6:30 AM PST 5:18 PM PST
Nautical Twilight 5:57 AM PST 5:51 PM PST
Astronomical Twilight 5:24 AM PST 6:23 PM PST
Moon 6:44 PM PST (11/19) 8:43 AM PST (11/19)
Length of Visible Light 10h 48m
Length of Day
9h 49m
Waning Gibbous, 95% of the Moon is Illuminated
Nov 19
Waning Gibbous
Nov 25
Last Quarter
Dec 2
New
Dec 9
First Quarter
Dec 17
Full

Hourly Weather History & Observations

Time (PST) Temp. Dew Point Humidity Pressure Visibility Wind Dir Wind Speed Gust Speed Precip Events Conditions
12:54 AM 50.0 °F 46.9 °F 89% 30.06 in 6.0 mi SE 6.9 mph - 0.02 in Rain Light Rain
1:54 AM 50.0 °F 48.0 °F 93% 30.07 in 7.0 mi SSE 6.9 mph - 0.01 in Rain Light Rain
2:35 AM 50.0 °F 48.2 °F 94% 30.06 in 9.0 mi SSE 9.2 mph - 0.00 in   Overcast
2:54 AM 50.0 °F 48.0 °F 93% 30.06 in 10.0 mi South 12.7 mph - 0.00 in   Overcast
3:09 AM 50.0 °F 48.2 °F 94% 30.06 in 10.0 mi South 11.5 mph - N/A   Overcast
3:17 AM 50.0 °F 48.2 °F 94% 30.06 in 10.0 mi South 11.5 mph - N/A   Overcast
3:54 AM 50.0 °F 48.0 °F 93% 30.05 in 10.0 mi South 13.8 mph - N/A   Overcast
4:30 AM 50.0 °F 48.2 °F 94% 30.05 in 10.0 mi South 12.7 mph - N/A   Overcast
4:54 AM 50.0 °F 48.0 °F 93% 30.05 in 10.0 mi South 13.8 mph - N/A   Overcast
5:54 AM 50.0 °F 48.0 °F 93% 30.05 in 10.0 mi South 12.7 mph - N/A   Overcast
6:54 AM 50.0 °F 48.0 °F 93% 30.06 in 5.0 mi South 12.7 mph - 0.00 in Rain Rain
7:09 AM 50.0 °F 48.2 °F 94% 30.07 in 2.5 mi South 9.2 mph - 0.01 in Rain Light Rain
7:35 AM 50.0 °F 48.2 °F 94% 30.07 in 4.0 mi South 9.2 mph - 0.03 in Rain Light Rain
7:54 AM 50.0 °F 48.9 °F 96% 30.07 in 4.0 mi SSW 8.1 mph - 0.04 in Rain Light Rain
8:10 AM 50.0 °F 48.2 °F 94% 30.08 in 2.5 mi SSW 5.8 mph - 0.01 in Rain Light Rain
8:54 AM 51.1 °F 48.9 °F 92% 30.07 in 2.5 mi SSW 6.9 mph - 0.06 in Rain Light Rain
9:14 AM 51.8 °F 48.2 °F 88% 30.07 in 3.0 mi SSW 6.9 mph - 0.02 in Rain Light Rain
9:54 AM 51.1 °F 48.9 °F 92% 30.07 in 3.0 mi SSW 9.2 mph - 0.06 in Rain Rain
10:54 AM 52.0 °F 50.0 °F 93% 30.06 in 5.0 mi South 10.4 mph - 0.02 in Rain Light Rain
11:22 AM 51.8 °F 50.0 °F 94% 30.06 in 2.0 mi SSE 9.2 mph - 0.01 in Rain Light Rain
11:42 AM 53.6 °F 51.8 °F 94% 30.05 in 3.0 mi South 10.4 mph - 0.06 in Rain Rain
11:54 AM 53.1 °F 51.1 °F 93% 30.04 in 5.0 mi South 11.5 mph - 0.07 in Rain Light Rain
12:24 PM 53.6 °F 51.8 °F 94% 30.04 in 2.0 mi South 11.5 mph - 0.04 in Rain Rain
12:32 PM 53.6 °F 51.8 °F 94% 30.03 in 1.5 mi South 10.4 mph - 0.05 in Rain Light Rain
12:46 PM 53.6 °F 51.8 °F 94% 30.02 in 2.5 mi South 10.4 mph - 0.06 in Rain Light Rain
12:52 PM 53.6 °F 51.8 °F 94% 30.02 in 3.0 mi South 9.2 mph - 0.06 in Rain Light Rain
12:54 PM 53.1 °F 51.1 °F 93% 30.02 in 3.0 mi South 9.2 mph - 0.06 in Rain Light Rain
1:01 PM 53.6 °F 51.8 °F 94% 30.02 in 3.0 mi South 6.9 mph - 0.01 in Rain Rain
1:54 PM 53.1 °F 52.0 °F 96% 30.00 in 5.0 mi South 9.2 mph - 0.05 in Rain Light Rain
2:30 PM 53.6 °F 51.8 °F 94% 29.99 in 2.5 mi South 8.1 mph - 0.02 in Rain Light Rain
2:46 PM 53.6 °F 51.8 °F 94% 29.98 in 4.0 mi South 9.2 mph - 0.02 in Rain Light Rain
2:54 PM 54.0 °F 52.0 °F 93% 29.98 in 5.0 mi South 8.1 mph - 0.03 in Rain Light Rain
3:17 PM 53.6 °F 53.6 °F 100% 29.97 in 2.0 mi South 6.9 mph - 0.00 in   Overcast
3:24 PM 53.6 °F 53.6 °F 100% 29.98 in 1.8 mi South 6.9 mph - 0.00 in   Overcast
3:31 PM 53.6 °F 53.6 °F 100% 29.98 in 2.0 mi South 6.9 mph - 0.00 in   Overcast
3:38 PM 53.6 °F 53.6 °F 100% 29.98 in 1.8 mi South 5.8 mph - 0.00 in   Overcast
3:45 PM 53.6 °F 53.6 °F 100% 29.98 in 2.5 mi South 4.6 mph - 0.00 in   Overcast
3:54 PM 54.0 °F 53.1 °F 97% 29.98 in 2.5 mi SSW 3.5 mph - 0.00 in   Overcast
4:11 PM 53.6 °F 53.6 °F 100% 29.97 in 1.8 mi SSW 3.5 mph - 0.01 in Rain Light Rain
4:31 PM 53.6 °F 53.6 °F 100% 29.97 in 3.0 mi SW 4.6 mph - 0.01 in   Overcast
4:37 PM 53.6 °F 53.6 °F 100% 29.96 in 4.0 mi SW 3.5 mph - 0.01 in Rain Light Rain
4:54 PM 54.0 °F 53.1 °F 97% 29.96 in 4.0 mi SSW 4.6 mph - 0.02 in Rain Light Rain
5:22 PM 53.6 °F 53.6 °F 100% 29.96 in 3.0 mi SW 5.8 mph - 0.00 in Rain Light Rain
5:34 PM 53.6 °F 53.6 °F 100% 29.95 in 2.5 mi SSW 6.9 mph - 0.01 in Rain Light Rain
5:51 PM 53.6 °F 53.6 °F 100% 29.95 in 2.5 mi South 5.8 mph - 0.02 in Rain Light Rain
5:54 PM 54.0 °F 53.1 °F 97% 29.95 in 2.5 mi South 8.1 mph - 0.03 in Rain Light Rain
6:12 PM 55.4 °F 53.6 °F 94% 29.96 in 3.0 mi South 6.9 mph - 0.00 in Rain Light Rain
6:19 PM 55.4 °F 53.6 °F 94% 29.95 in 2.5 mi South 9.2 mph - 0.00 in Rain Light Rain
6:50 PM 55.4 °F 53.6 °F 94% 29.95 in 3.0 mi South 6.9 mph - 0.01 in Rain Light Rain
6:54 PM 55.0 °F 53.1 °F 93% 29.95 in 3.0 mi SSE 6.9 mph - 0.01 in Rain Light Rain
7:14 PM 55.4 °F 53.6 °F 94% 29.95 in 2.0 mi South 6.9 mph - 0.02 in Rain Light Rain
7:21 PM 53.6 °F 53.6 °F 100% 29.95 in 1.8 mi South 10.4 mph - 0.03 in Rain Rain
7:42 PM 53.6 °F 53.6 °F 100% 29.94 in 1.5 mi Calm Calm - 0.07 in Rain Rain
7:54 PM 54.0 °F 53.1 °F 97% 29.94 in 1.8 mi Variable 3.5 mph - 0.09 in Rain Rain
8:03 PM 53.6 °F 53.6 °F 100% 29.94 in 2.5 mi Calm Calm - 0.02 in Rain Rain
8:07 PM 53.6 °F 51.8 °F 94% 29.94 in 4.0 mi Calm Calm - 0.02 in Rain Rain
8:54 PM 53.1 °F 52.0 °F 96% 29.94 in 5.0 mi SSW 5.8 mph - 0.11 in Rain Rain
9:23 PM 53.6 °F 51.8 °F 94% 29.94 in 2.0 mi South 8.1 mph - 0.01 in Rain Light Rain
9:46 PM 53.6 °F 53.6 °F 100% 29.93 in 4.0 mi South 8.1 mph - 0.02 in Rain Light Rain
9:54 PM 54.0 °F 53.1 °F 97% 29.93 in 6.0 mi South 8.1 mph - 0.02 in Rain Light Rain
10:47 PM 53.6 °F 53.6 °F 100% 29.93 in 2.5 mi South 6.9 mph - 0.04 in Rain Rain
10:54 PM 54.0 °F 53.1 °F 97% 29.93 in 2.5 mi SSW 6.9 mph - 0.05 in Rain Rain
11:18 PM 53.6 °F 53.6 °F 100% 29.92 in 2.0 mi SW 4.6 mph - 0.04 in Rain Light Rain
11:42 PM 53.6 °F 51.8 °F 94% 29.93 in 3.0 mi West 8.1 mph - 0.06 in Rain Light Rain
11:51 PM 53.6 °F 51.8 °F 94% 29.93 in 1.8 mi NW 3.5 mph - 0.07 in Rain Rain
11:52 PM 53.1 °F 51.1 °F 93% 29.93 in 1.8 mi Calm Calm - 0.08 in Rain Heavy Rain